Weather Roundup
Issued by NWS

Home | Current Version | Previous Version | Graphics & Text | Print | Product List | Glossary Off
Versions: 1 2 3 4 5 6 7 8 9 10 11 12 13 14 15 16 17 18 19 20 21 22 23 24 25 26 27 28 29 30 31 32 33 34 35 36 37 38 39 40 41 42 43 44 45 46 47 48 49 50

265
NZUS93 KARX 271410
HRRWXR

CURRENT HOURLY OBSERVATIONS ACROSS
MUCH OF THE UPPER MISSISSIPPI VALLEY
NATIONAL WEATHER SERVICE LA CROSSE WI
900 AM CDT FRI MAY 27 2016


...SOUTHEAST MINNESOTA...


CITY           SKY/WX    TMP DP  RH WIND       PRES   REMARKS
ROCHESTER      CLOUDY    63  60  90 SE10      29.84F
ROCHESTER/MAYO CLOUDY    63  61  93 E8        29.85R
WINONA         CLOUDY    63  61  94 NW7       29.82F
AUSTIN         CLOUDY    63  59  88 SE3       29.82F
ALBERT LEA     CLOUDY    66  57  72 SE17      29.80S
DODGE CENTER   PTSUNNY   64  57  77 SE10      29.83S
PRESTON        CLOUDY    62  58  87 N6        29.82F
OWATONNA       CLOUDY    66  57  72 E14G20    29.81R
FARIBAULT      CLOUDY    70  57  64 SE12      29.80S
$$

...ELSEWHERE IN MINNESOTA...


CITY           SKY/WX    TMP DP  RH WIND       PRES   REMARKS
MINNEAPOLIS    CLOUDY    67  58  72 SE18      29.80S
INTNL FALLS    SUNNY     63  54  72 NE5       29.84R
DULUTH         CLOUDY    56  51  84 S8        29.88R
RED WING       LGT RAIN  64  61  88 E7        29.83F
REDWOOD FALLS  CLOUDY    66  56  70 S12       29.76R
MANKATO        CLOUDY    66  55  68 SE9G17    29.78S
WORTHINGTON    CLOUDY    63  57  81 SE6       29.79R
FAIRMONT       CLOUDY    64  55  72 SE12      29.80R
$$

...SOUTHWEST WISCONSIN...


CITY           SKY/WX    TMP DP  RH WIND       PRES   REMARKS
LA CROSSE      CLOUDY    67  63  87 CALM      29.82S
PRAIRIE DU CHI CLOUDY    66  65  96 E5        29.82S
BOSCOBEL       CLOUDY    68  63  84 NE3       29.84S
LONE ROCK      CLOUDY    68  63  84 SE8       29.85S
PLATTEVILLE    CLOUDY    68  64  88 SE12      29.85S
FORT MC COY    CLOUDY    64  63  95 CALM      29.84R
MAUSTON-NEW LI CLOUDY    64  63  94 S6        29.85R
VIROQUA        PTSUNNY   64  63  94 E9        29.84R
WIS DELLS      MOSUNNY   66  63  90 E8        29.86F
$$

...ELSEWHERE IN WISCONSIN...


CITY           SKY/WX    TMP DP  RH WIND       PRES   REMARKS
MILWAUKEE      CLOUDY    73  67  81 SW7       29.88R
MADISON        CLOUDY    68  61  78 CALM      29.85F
GREEN BAY      CLOUDY    74  62  66 CALM      29.87S
EAU CLAIRE     CLOUDY    63  59  87 CALM      29.86F
BLACK RVR FLS  PTSUNNY   64  63  94 N5        29.82F
MEDFORD        CLOUDY    62  58  87 CALM      29.90R
WAUSAU         CLOUDY    66  59  78 CALM      29.87S
WIS RAPIDS     CLOUDY    66  60  81 E6        29.86F
MARSHFIELD     CLOUDY    66  58  75 NE3       29.86F
RICE LAKE      CLOUDY    62  58  87 CALM      29.90R
$$

...NORTHEAST IOWA...


CITY           SKY/WX    TMP DP  RH WIND       PRES   REMARKS
WATERLOO       CLOUDY    68  61  78 E9        29.78F
DUBUQUE        CLOUDY    67  62  84 S20       29.85S
DECORAH        CLOUDY    66  64  94 NE7       29.81F
MASON CITY     LGT RAIN  62  60  93 SE12      29.83R FOG
CHARLES CITY   CLOUDY    64  64 100 NE6       29.81F
OELWEIN        PTSUNNY   68  63  83 SE12      29.81F
$$

...ELSEWHERE IN IOWA...


CITY           SKY/WX    TMP DP  RH WIND       PRES   REMARKS
DES MOINES     CLOUDY    64  60  87 E3        29.77R
IOWA CITY      CLOUDY    68  64  87 SE7       29.82S
FORT DODGE     CLOUDY    64  57  77 SE6       29.79S
MARSHALLTOWN   CLOUDY    65  62  90 E13       29.77F
CEDAR RAPIDS   CLOUDY    66  63  90 E7        29.80S
$$

...NORTHERN ILLINOIS...


CITY           SKY/WX    TMP DP  RH WIND       PRES   REMARKS
CHICAGO-OHARE  LGT RAIN  69  65  86 SW8       29.90R
CHICAGO-MIDWAY CLOUDY    73  64  73 SW12      29.91R
MOLINE         CLOUDY    70  64  81 S13G24    29.83F
ROCKFORD       LGT RAIN  71  66  84 S9        29.90S
PEORIA         CLOUDY    72  64  76 S16G24    29.87F
$$

NOTE: "FAIR" INDICATES FEW OR NO CLOUDS BELOW 12,000 FEET WITH NO
SIGNIFICANT WEATHER AND/OR OBSTRUCTIONS TO VISIBILITY. WIND
SPEEDS ARE IN MILES-PER-HOUR.




USA.gov is the U.S. government's official web portal to all federal, state and local government web resources and services.